OK,72,47,917,72,2014-10-01T01:40:00,0,28072687,195472
OK,72,47,917,72,2014-10-01T01:45:00,0,28073134,195472
OK,72,47,917,72,2014-10-01T01:50:00,0,28073582,195472
OK,72,47,917,72,2014-10-01T01:55:00,0,28073900,195472
OK,72,47,917,72,2014-10-01T02:00:00,0,28074349,195472
OK,72,47,917,72,2014-10-01T02:05:00,0,28074790,195472
OK,72,47,917,72,2014-10-01T02:10:00,0,28075238,195472
OK,72,47,917,72,2014-10-01T02:15:00,0,28075687,195472
OK,72,47,917,72,2014-10-01T02:20:00,0,28076071,195472
OK,72,47,917,72,2014-10-01T02:25:00,0,28076519,195472
OK,72,47,917,72,2014-10-01T02:30:00,0,28076968,195472
OK,72,47,917,72,2014-10-01T02:35:00,0,28077417,195472
OK,72,47,917,72,2014-10-01T02:40:00,0,28077820,195472
OK,72,47,917,72,2014-10-01T02:45:00,0,28078269,195472
OK,72,47,917,72,2014-10-01T02:50:00,0,28078714,195472
OK,72,47,917,72,2014-10-01T02:55:00,0,28079163,195472
OK,72,47,917,72,2014-10-01T03:00:00,0,28079605,195472
OK,72,47,917,72,2014-10-01T03:05:00,0,28080054,195472
OK,72,47,917,72,2014-10-01T03:10:00,0,28080388,195472
OK,92,37,917,92,2014-10-01T03:15:00,1,28080837,195472
OK,92,37,917,92,2014-10-01T03:20:00,0,28081286,195472
OK,92,37,917,92,2014-10-01T03:25:00,0,28081733,195472
OK,92,37,917,92,2014-10-01T03:30:00,0,28082182,195472
OK,92,37,917,92,2014-10-01T03:35:00,0,28082615,195472
OK,92,37,917,92,2014-10-01T03:40:00,0,28083047,195472
OK,68,50,917,68,2014-10-01T03:45:00,1,28083496,195472
OK,68,50,917,68,2014-10-01T03:50:00,1,28083945,195472
OK,119,28,917,119,2014-10-01T03:55:00,1,28084386,195472
OK,119,28,917,119,2014-10-01T04:00:00,1,28084812,195472
OK,119,28,917,119,2014-10-01T04:05:00,0,28085260,195472
OK,119,28,917,119,2014-10-01T04:10:00,0,28085705,195472
OK,123,27,917,123,2014-10-01T04:15:00,1,28086154,195472
OK,121,28,917,121,2014-10-01T04:20:00,2,28086596,195472
OK,120,28,917,120,2014-10-01T04:25:00,1,28087045,195472
OK,120,28,917,120,2014-10-01T04:30:00,0,28087490,195472
OK,116,29,917,116,2014-10-01T04:35:00,3,28087939,195472
OK,116,29,917,116,2014-10-01T04:40:00,0,28088364,195472
OK,116,29,917,116,2014-10-01T04:45:00,0,28088812,195472
OK,116,29,917,116,2014-10-01T04:50:00,0,28089242,195472
OK,127,27,917,127,2014-10-01T04:55:00,3,28089691,195472
OK,114,30,917,114,2014-10-01T05:00:00,7,28090140,195472
OK,109,31,917,109,2014-10-01T05:05:00,5,28090490,195472
OK,136,25,917,136,2014-10-01T05:10:00,1,28090933,195472
OK,136,25,917,136,2014-10-01T05:15:00,0,28091382,195472
OK,113,30,917,113,2014-10-01T05:20:00,1,28091799,195472
OK,113,30,917,113,2014-10-01T05:25:00,1,28092248,195472
OK,113,30,917,113,2014-10-01T05:30:00,0,28092692,195472
OK,107,32,917,107,2014-10-01T05:35:00,4,28093133,195472
OK,107,32,917,107,2014-10-01T05:40:00,4,28093564,195472
OK,124,27,917,124,2014-10-01T05:45:00,1,28094013,195472
OK,124,27,917,124,2014-10-01T05:50:00,0,28094425,195472
OK,130,26,917,130,2014-10-01T05:55:00,2,28094869,195472
OK,128,26,917,128,2014-10-01T06:00:00,3,28095316,195472
OK,129,26,917,129,2014-10-01T06:05:00,3,28095765,195472
OK,89,38,917,89,2014-10-01T06:10:00,2,28096178,195472
OK,122,28,917,122,2014-10-01T06:15:00,4,28096627,195472
OK,122,28,917,122,2014-10-01T06:20:00,2,28097061,195472
OK,125,27,917,125,2014-10-01T06:25:00,0,28097510,195472
OK,138,24,917,138,2014-10-01T06:30:00,2,28097959,195472
OK,126,27,917,126,2014-10-01T06:35:00,3,28098397,195472
OK,124,27,917,124,2014-10-01T06:40:00,1,28098840,195472
OK,129,26,917,129,2014-10-01T06:45:00,1,28099288,195472
OK,116,29,917,116,2014-10-01T06:50:00,1,28099631,195472
OK,119,28,917,119,2014-10-01T06:55:00,3,28100080,195472
OK,120,28,917,120,2014-10-01T07:00:00,2,28100387,195472
OK,66,52,917,66,2014-10-01T07:05:00,3,28100836,195472
OK,66,52,917,66,2014-10-01T07:10:00,3,28101207,195472
OK,66,52,917,66,2014-10-01T07:15:00,0,28101656,195472
OK,66,52,917,66,2014-10-01T07:20:00,0,28102092,195472
OK,66,52,917,66,2014-10-01T07:25:00,0,28102541,195472
OK,119,28,917,119,2014-10-01T07:30:00,1,28102970,195472
OK,163,21,917,163,2014-10-01T07:35:00,3,28103415,195472
OK,163,21,917,163,2014-10-01T07:40:00,3,28103860,195472
OK,122,28,917,122,2014-10-01T07:45:00,1,28104305,195472
OK,113,30,917,113,2014-10-01T07:50:00,1,28104747,195472
OK,85,40,917,85,2014-10-01T07:55:00,2,28105191,195472
OK,58,59,917,58,2014-10-01T08:00:00,1,28105631,195472
OK,59,58,917,59,2014-10-01T08:05:00,2,28106080,195472
OK,61,56,917,61,2014-10-01T08:10:00,3,28106517,195472
OK,84,40,917,84,2014-10-01T08:15:00,1,28106923,195472
OK,84,40,917,84,2014-10-01T08:20:00,1,28107355,195472
OK,84,40,917,84,2014-10-01T08:25:00,0,28107804,195472
OK,84,40,917,84,2014-10-01T08:30:00,0,28108243,195472
OK,61,56,917,61,2014-10-01T08:35:00,3,28108692,195472
OK,61,56,917,61,2014-10-01T08:40:00,4,28109120,195472
OK,68,50,917,68,2014-10-01T08:45:00,2,28109569,195472
OK,72,47,917,72,2014-10-01T08:50:00,0,28109912,195472
OK,72,47,917,72,2014-10-01T08:55:00,0,28110361,195472
OK,72,47,917,72,2014-10-01T09:00:00,0,28110784,195472
OK,62,55,917,62,2014-10-01T09:05:00,1,28111233,195472
OK,62,55,917,62,2014-10-01T09:10:00,0,28111662,195472
OK,97,35,917,97,2014-10-01T09:15:00,2,28112111,195472
OK,132,26,917,132,2014-10-01T09:20:00,3,28112452,195472
OK,132,26,917,132,2014-10-01T09:25:00,3,28112901,195472
OK,76,45,917,76,2014-10-01T09:30:00,4,28113325,195472
OK,73,47,917,73,2014-10-01T09:35:00,3,28113774,195472
OK,73,47,917,73,2014-10-01T09:40:00,0,28114206,195472
OK,73,47,917,73,2014-10-01T09:45:00,0,28114655,195472
OK,66,52,917,66,2014-10-01T09:50:00,1,28115009,195472
OK,66,52,917,66,2014-10-01T09:55:00,1,28115458,195472
OK,66,52,917,66,2014-10-01T10:00:00,0,28115870,195472
OK,66,52,917,66,2014-10-01T10:05:00,0,28116319,195472
OK,130,26,917,130,2014-10-01T10:10:00,1,28116727,195472
OK,125,27,917,125,2014-10-01T10:15:00,6,28117176,195472
OK,123,27,917,123,2014-10-01T10:20:00,6,28117601,195472
OK,89,38,917,89,2014-10-01T10:25:00,2,28118050,195472
OK,66,52,917,66,2014-10-01T10:30:00,1,28118495,195472
OK,135,25,917,135,2014-10-01T10:35:00,1,28118942,195472
OK,90,38,917,90,2014-10-01T10:40:00,3,28119386,195472
OK,90,38,917,90,2014-10-01T10:45:00,3,28119834,195472
OK,129,26,917,129,2014-10-01T10:50:00,1,28120282,195472
OK,86,39,917,86,2014-10-01T10:55:00,1,28120731,195472
OK,86,39,917,86,2014-10-01T11:00:00,1,28121114,195472
OK,55,62,917,55,2014-10-01T11:05:00,1,28121563,195472
OK,77,44,917,77,2014-10-01T11:10:00,2,28122001,195472
OK,111,30,917,111,2014-10-01T11:15:00,2,28122450,195472
OK,117,29,917,117,2014-10-01T11:20:00,4,28122891,195472
OK,116,29,917,116,2014-10-01T11:25:00,3,28123340,195472
OK,80,42,917,80,2014-10-01T11:30:00,1,28123772,195472
OK,104,33,917,104,2014-10-01T11:35:00,2,28124221,195472
OK,97,35,917,97,2014-10-01T11:40:00,2,28124623,195472
OK,67,51,917,67,2014-10-01T11:45:00,1,28125072,195472
OK,109,31,917,109,2014-10-01T11:50:00,1,28125501,195472
OK,109,31,917,109,2014-10-01T11:55:00,1,28125950,195472
OK,116,29,917,116,2014-10-01T12:00:00,1,28126302,195472
OK,116,29,917,116,2014-10-01T12:05:00,3,28126751,195472
OK,113,30,917,113,2014-10-01T12:10:00,3,28127200,195472
OK,115,29,917,115,2014-10-01T12:15:00,4,28127649,195472
OK,119,28,917,119,2014-10-01T12:20:00,4,28128077,195472
OK,121,28,917,121,2014-10-01T12:25:00,3,28128526,195472
OK,120,28,917,120,2014-10-01T12:30:00,1,28128961,195472
OK,120,28,917,120,2014-10-01T12:35:00,0,28129410,195472
OK,107,32,917,107,2014-10-01T12:40:00,1,28129844,195472
OK,107,32,917,107,2014-10-01T12:45:00,1,28130293,195472
OK,107,32,917,107,2014-10-01T12:50:00,0,28130721,195472
OK,124,27,917,124,2014-10-01T12:55:00,3,28131170,195472
OK,93,36,917,93,2014-10-01T13:00:00,6,28131607,195472
OK,99,34,917,99,2014-10-01T13:05:00,3,28132056,195472
OK,116,29,917,116,2014-10-01T13:10:00,3,28132494,195472
OK,117,29,917,117,2014-10-01T13:15:00,4,28132941,195472
OK,137,25,917,137,2014-10-01T13:20:00,4,28133379,195472
OK,116,29,917,116,2014-10-01T13:25:00,0,28133828,195472
OK,187,18,917,187,2014-10-01T13:30:00,3,28134267,195472
OK,182,18,917,182,2014-10-01T13:35:00,6,28134716,195472
OK,161,21,917,161,2014-10-01T13:40:00,6,28135135,195472
OK,139,24,917,139,2014-10-01T13:45:00,6,28135584,195472
OK,121,28,917,121,2014-10-01T13:50:00,1,28136021,195472
OK,148,23,917,148,2014-10-01T13:55:00,5,28136470,195472
OK,149,23,917,149,2014-10-01T14:00:00,4,28136910,195472
OK,151,22,917,151,2014-10-01T14:05:00,0,28137359,195472
OK,163,21,917,163,2014-10-01T14:10:00,8,28137793,195472
OK,172,19,917,172,2014-10-01T14:15:00,9,28138242,195472
OK,162,21,917,162,2014-10-01T14:20:00,5,28138670,195472
OK,161,21,917,161,2014-10-01T14:25:00,7,28139119,195472
OK,150,22,917,150,2014-10-01T14:30:00,5,28139530,195472
OK,181,18,917,181,2014-10-01T14:35:00,0,28139979,195472
OK,138,24,917,138,2014-10-01T14:40:00,2,28140421,195472
OK,138,24,917,138,2014-10-01T14:45:00,2,28140870,195472
OK,118,29,917,118,2014-10-01T14:50:00,1,28141296,195472
OK,122,28,917,122,2014-10-01T14:55:00,2,28141745,195472
OK,128,26,917,128,2014-10-01T15:00:00,2,28142173,195472
OK,113,30,917,113,2014-10-01T15:05:00,2,28142622,195472
OK,116,29,917,116,2014-10-01T15:10:00,4,28143049,195472
OK,112,30,917,112,2014-10-01T15:15:00,5,28143498,195472
OK,68,50,917,68,2014-10-01T15:20:00,4,28143946,195472
OK,126,27,917,126,2014-10-01T15:25:00,3,28144395,195472
OK,117,29,917,117,2014-10-01T15:30:00,3,28144817,195472
OK,117,29,917,117,2014-10-01T15:35:00,3,28145230,195472
OK,118,29,917,118,2014-10-01T15:40:00,2,28145679,195472
OK,114,30,917,114,2014-10-01T15:45:00,3,28146128,195472
OK,110,31,917,110,2014-10-01T15:50:00,4,28146577,195472
OK,75,45,917,75,2014-10-01T15:55:00,3,28146986,195472
OK,75,45,917,75,2014-10-01T16:00:00,1,28147429,195472
OK,75,45,917,75,2014-10-01T16:05:00,0,28147878,195472
OK,75,45,917,75,2014-10-01T16:10:00,0,28148279,195472
OK,75,45,917,75,2014-10-01T16:15:00,0,28148728,195472
OK,75,45,917,75,2014-10-01T16:20:00,0,28149167,195472
OK,75,45,917,75,2014-10-01T16:25:00,0,28149616,195472
OK,117,29,917,117,2014-10-01T16:30:00,1,28150042,195472
OK,114,30,917,114,2014-10-01T16:35:00,2,28150491,195472
OK,114,30,917,114,2014-10-01T16:40:00,2,28150909,195472
OK,123,27,917,123,2014-10-01T16:45:00,0,28151358,195472
OK,123,27,917,123,2014-10-01T16:50:00,0,28151807,195472
OK,113,30,917,113,2014-10-01T17:00:00,2,28152256,195472
OK,114,30,917,114,2014-10-01T17:05:00,0,28152702,195472
OK,114,30,917,114,2014-10-01T17:10:00,0,28153149,195472
OK,114,30,917,114,2014-10-01T17:15:00,0,28153598,195472
OK,67,51,917,67,2014-10-01T17:20:00,1,28154008,195472
OK,67,51,917,67,2014-10-01T17:25:00,1,28154457,195472
OK,111,30,917,111,2014-10-01T17:30:00,1,28154899,195472
OK,57,60,917,57,2014-10-01T17:35:00,1,28155347,195472
OK,58,59,917,58,2014-10-01T17:40:00,2,28155765,195472
OK,60,57,917,60,2014-10-01T17:45:00,0,28156214,195472
OK,60,57,917,60,2014-10-01T17:50:00,0,28156663,195472
OK,105,32,917,105,2014-10-01T17:55:00,1,28157101,195472
OK,105,32,917,105,2014-10-01T18:00:00,1,28157531,195472
OK,105,32,917,105,2014-10-01T18:05:00,0,28157979,195472
OK,105,32,917,105,2014-10-01T18:10:00,0,28158423,195472
OK,105,32,917,105,2014-10-01T18:15:00,0,28158869,195472
OK,105,32,917,105,2014-10-01T18:20:00,0,28159315,195472
OK,111,30,917,111,2014-10-01T18:25:00,1,28159650,195472
OK,112,30,917,112,2014-10-01T18:30:00,1,28160099,195472
OK,112,30,917,112,2014-10-01T18:35:00,0,28160548,195472
OK,71,48,917,71,2014-10-01T18:40:00,1,28160986,195472
OK,71,48,917,71,2014-10-01T18:45:00,0,28161435,195472
OK,71,48,917,71,2014-10-01T18:50:00,0,28161852,195472
OK,71,48,917,71,2014-10-01T18:55:00,0,28162301,195472
OK,71,48,917,71,2014-10-01T19:00:00,0,28162696,195472
OK,71,48,917,71,2014-10-01T19:05:00,0,28163134,195472
OK,71,48,917,71,2014-10-01T19:10:00,0,28163582,195472
OK,136,25,917,136,2014-10-01T19:15:00,1,28164031,195472
OK,136,25,917,136,2014-10-01T19:20:00,1,28164462,195472
OK,88,39,917,88,2014-10-01T19:25:00,1,28164911,195472
OK,98,35,917,98,2014-10-01T19:30:00,2,28165336,195472
OK,57,60,917,57,2014-10-01T19:35:00,1,28165784,195472
OK,57,60,917,57,2014-10-01T19:40:00,1,28166225,195472
OK,72,47,917,72,2014-10-01T19:45:00,1,28166587,195472
OK,72,47,917,72,2014-10-01T19:50:00,0,28167036,195472
OK,72,47,917,72,2014-10-01T19:55:00,0,28167465,195472
OK,72,47,917,72,2014-10-01T20:00:00,0,28167898,195472
OK,72,47,917,72,2014-10-01T20:05:00,0,28168347,195472
OK,72,47,917,72,2014-10-01T20:10:00,0,28168792,195472
OK,72,47,917,72,2014-10-01T20:15:00,0,28169241,195472
OK,72,47,917,72,2014-10-01T20:20:00,0,28169689,195472
OK,72,47,917,72,2014-10-01T20:25:00,0,28170115,195472
OK,72,47,917,72,2014-10-01T20:30:00,0,28170560,195472
OK,72,47,917,72,2014-10-01T20:35:00,0,28171008,195472
OK,72,47,917,72,2014-10-01T20:40:00,0,28171445,195472
OK,72,47,917,72,2014-10-01T20:45:00,0,28171891,195472
OK,65,52,917,65,2014-10-01T20:50:00,1,28172339,195472
OK,89,38,917,89,2014-10-01T20:55:00,2,28172785,195472
OK,113,30,917,113,2014-10-01T21:00:00,2,28173231,195472
OK,113,30,917,113,2014-10-01T21:05:00,0,28173680,195472
OK,113,30,917,113,2014-10-01T21:10:00,0,28174121,195472
OK,113,30,917,113,2014-10-01T21:15:00,0,28174570,195472
OK,113,30,917,113,2014-10-01T21:20:00,0,28174996,195472
OK,58,59,917,58,2014-10-01T21:25:00,1,28175392,195472
OK,58,59,917,58,2014-10-01T21:30:00,1,28175841,195472
OK,58,59,917,58,2014-10-01T21:35:00,0,28176290,195472
OK,58,59,917,58,2014-10-01T21:40:00,0,28176739,195472
OK,58,59,917,58,2014-10-01T21:45:00,0,28177096,195472
OK,58,59,917,58,2014-10-01T21:50:00,0,28177535,195472
OK,118,29,917,118,2014-10-01T21:55:00,2,28177981,195472
OK,124,27,917,124,2014-10-01T22:00:00,0,28178430,195472
OK,124,27,917,124,2014-10-01T22:05:00,0,28178877,195472
OK,124,27,917,124,2014-10-01T22:10:00,0,28179311,195472
OK,124,27,917,124,2014-10-01T22:15:00,0,28179754,195472
OK,124,27,917,124,2014-10-01T22:20:00,0,28180201,195472
OK,124,27,917,124,2014-10-01T22:25:00,0,28180599,195472
OK,124,27,917,124,2014-10-01T22:30:00,0,28181048,195472
OK,124,27,917,124,2014-10-01T22:35:00,0,28181472,195472
OK,124,27,917,124,2014-10-01T22:40:00,0,28181920,195472
OK,124,27,917,124,2014-10-01T22:45:00,0,28182367,195472
OK,124,27,917,124,2014-10-01T22:50:00,0,28182816,195472
OK,124,27,917,124,2014-10-01T22:55:00,0,28183233,195472
OK,124,27,917,124,2014-10-01T23:00:00,0,28183666,195472
OK,124,27,917,124,2014-10-01T23:05:00,0,28184111,195472
OK,124,27,917,124,2014-10-01T23:10:00,0,28184560,195472
OK,124,27,917,124,2014-10-01T23:15:00,0,28184995,195472
OK,124,27,917,124,2014-10-01T23:20:00,0,28185443,195472
OK,124,27,917,124,2014-10-01T23:25:00,0,28185874,195472
OK,124,27,917,124,2014-10-01T23:30:00,0,28186266,195472
OK,124,27,917,124,2014-10-01T23:40:00,0,28187113,195472
OK,124,27,917,124,2014-10-01T23:55:00,0,28188445,195472
OK,124,27,917,124,2014-10-02T00:00:00,0,28188881,195472
OK,124,27,917,124,2014-10-02T00:05:00,0,28189330,195472
OK,124,27,917,124,2014-10-02T00:10:00,0,28189752,195472
OK,124,27,917,124,2014-10-02T00:15:00,0,28190201,195472
OK,124,27,917,124,2014-10-02T00:20:00,0,28190554,195472
OK,124,27,917,124,2014-10-02T00:30:00,0,28191452,195472
OK,124,27,917,124,2014-10-02T00:35:00,0,28191758,195472
OK,124,27,917,124,2014-10-02T00:40:00,0,28192207,195472
OK,124,27,917,124,2014-10-02T00:45:00,0,28192640,195472
OK,124,27,917,124,2014-10-02T00:50:00,0,28193084,195472
OK,124,27,917,124,2014-10-02T00:55:00,0,28193451,195472
OK,124,27,917,124,2014-10-02T01:05:00,0,28194349,195472
OK,124,27,917,124,2014-10-02T01:10:00,0,28194798,195472
OK,124,27,917,124,2014-10-02T01:15:00,0,28195039,195472
OK,124,27,917,124,2014-10-02T01:30:00,0,28195932,195472
OK,124,27,917,124,2014-10-02T01:35:00,0,28196665,195472
OK,124,27,917,124,2014-10-02T01:40:00,0,28197088,195472
OK,124,27,917,124,2014-10-02T01:45:00,0,28197537,195472
OK,124,27,917,124,2014-10-02T01:50:00,0,28197985,195472
OK,124,27,917,124,2014-10-02T01:55:00,0,28198433,195472
OK,124,27,917,124,2014-10-02T02:00:00,0,28198882,195472
OK,124,27,917,124,2014-10-02T02:05:00,0,28199255,195472
OK,124,27,917,124,2014-10-02T02:10:00,0,28199696,195472
OK,124,27,917,124,2014-10-02T02:15:00,0,28200138,195472
OK,124,27,917,124,2014-10-02T02:20:00,0,28200581,195472
OK,124,27,917,124,2014-10-02T02:25:00,0,28201030,195472
OK,124,27,917,124,2014-10-02T02:30:00,0,28201461,195472
OK,124,27,917,124,2014-10-02T02:45:00,0,28202359,195472
OK,124,27,917,124,2014-10-02T02:50:00,0,28202801,195472
OK,124,27,917,124,2014-10-02T02:55:00,0,28203249,195472
OK,124,27,917,124,2014-10-02T03:00:00,0,28203684,195472
OK,124,27,917,124,2014-10-02T03:10:00,0,28204133,195472
OK,124,27,917,124,2014-10-02T03:25:00,0,28204582,195472
OK,124,27,917,124,2014-10-02T03:30:00,0,28205031,195472
OK,124,27,917,124,2014-10-02T03:35:00,0,28205459,195472
OK,124,27,917,124,2014-10-02T03:40:00,0,28205906,195472
OK,124,27,917,124,2014-10-02T03:45:00,0,28206289,195472
OK,124,27,917,124,2014-10-02T03:55:00,0,28207187,195472
OK,113,30,917,113,2014-10-02T04:00:00,2,28207607,195472
OK,91,37,917,91,2014-10-02T04:05:00,0,28208055,195472
OK,76,45,917,76,2014-10-02T04:10:00,1,28208482,195472
OK,76,45,917,76,2014-10-02T04:15:00,0,28208931,195472
OK,76,45,917,76,2014-10-02T04:20:00,0,28209369,195472
OK,76,45,917,76,2014-10-02T04:25:00,0,28209818,195472
OK,116,29,917,116,2014-10-02T04:30:00,1,28210241,195472
OK,116,29,917,116,2014-10-02T04:35:00,1,28210690,195472
OK,116,29,917,116,2014-10-02T04:40:00,0,28211115,195472
OK,116,29,917,116,2014-10-02T04:45:00,0,28211559,195472
OK,116,29,917,116,2014-10-02T04:50:00,0,28211937,195472
OK,69,49,917,69,2014-10-02T04:55:00,1,28212386,195472
OK,69,49,917,69,2014-10-02T05:00:00,1,28212815,195472
OK,65,52,917,65,2014-10-02T05:05:00,2,28213264,195472
OK,65,52,917,65,2014-10-02T05:10:00,0,28213702,195472
OK,65,52,917,65,2014-10-02T05:15:00,0,28214151,195472
OK,65,52,917,65,2014-10-02T05:20:00,0,28214564,195472
OK,104,33,917,104,2014-10-02T05:25:00,1,28215013,195472
OK,104,33,917,104,2014-10-02T05:30:00,0,28215429,195472
OK,104,33,917,104,2014-10-02T05:35:00,0,28215878,195472
OK,178,19,917,178,2014-10-02T05:40:00,1,28216222,195472
OK,178,19,917,178,2014-10-02T05:45:00,1,28216657,195472
OK,178,19,917,178,2014-10-02T05:50:00,0,28217104,195472
OK,113,30,917,113,2014-10-02T05:55:00,1,28217553,195472
OK,74,46,917,74,2014-10-02T06:00:00,5,28217992,195472
OK,74,46,917,74,2014-10-02T06:05:00,4,28218441,195472
OK,76,45,917,76,2014-10-02T06:10:00,0,28218861,195472
OK,128,26,917,128,2014-10-02T06:15:00,2,28219310,195472
OK,83,41,917,83,2014-10-02T06:20:00,2,28219683,195472
OK,83,41,917,83,2014-10-02T06:25:00,2,28220132,195472
OK,81,42,917,81,2014-10-02T06:30:00,2,28220566,195472
OK,83,41,917,83,2014-10-02T06:35:00,3,28221015,195472
OK,100,34,917,100,2014-10-02T06:40:00,3,28221397,195472
OK,93,36,917,93,2014-10-02T06:45:00,1,28221682,195472
OK,87,39,917,87,2014-10-02T07:00:00,4,28222276,195472
OK,93,36,917,93,2014-10-02T07:05:00,0,28222725,195472
OK,93,36,917,93,2014-10-02T07:10:00,0,28223156,195472
OK,93,36,917,93,2014-10-02T07:15:00,0,28223592,195472
OK,93,36,917,93,2014-10-02T07:20:00,0,28224039,195472
OK,91,37,917,91,2014-10-02T07:25:00,1,28224394,195472
OK,91,37,917,91,2014-10-02T07:30:00,0,28224843,195472
OK,60,57,917,60,2014-10-02T07:35:00,1,28225292,195472
OK,60,57,917,60,2014-10-02T07:40:00,0,28225614,195472
OK,60,57,917,60,2014-10-02T07:50:00,0,28226504,195472
OK,139,24,917,139,2014-10-02T07:55:00,1,28226953,195472
OK,139,24,917,139,2014-10-02T08:00:00,1,28227368,195472
OK,139,24,917,139,2014-10-02T08:05:00,0,28227817,195472
OK,139,24,917,139,2014-10-02T08:10:00,0,28228176,195472
OK,82,41,917,82,2014-10-02T08:15:00,1,28228625,195472
OK,82,41,917,82,2014-10-02T08:20:00,0,28229035,195472
OK,70,49,917,70,2014-10-02T08:25:00,0,28229484,195472
OK,70,49,917,70,2014-10-02T08:30:00,0,28229834,195472
OK,101,34,917,101,2014-10-02T08:35:00,3,28230283,195472
OK,101,34,917,101,2014-10-02T08:40:00,0,28230650,195472
OK,101,34,917,101,2014-10-02T08:45:00,0,28231098,195472
OK,86,39,917,86,2014-10-02T08:50:00,3,28231521,195472
OK,109,31,917,109,2014-10-02T08:55:00,1,28231970,195472
OK,85,40,917,85,2014-10-02T09:00:00,2,28232312,195472
OK,108,31,917,108,2014-10-02T09:10:00,0,28232761,195472
OK,74,46,917,74,2014-10-02T09:15:00,3,28233210,195472
OK,90,38,917,90,2014-10-02T09:20:00,1,28233634,195472
OK,78,44,917,78,2014-10-02T09:25:00,3,28234083,195472
OK,80,42,917,80,2014-10-02T09:30:00,0,28234416,195472
OK,64,53,917,64,2014-10-02T09:35:00,2,28234865,195472
OK,65,52,917,65,2014-10-02T09:40:00,0,28235292,195472
OK,78,44,917,78,2014-10-02T09:45:00,2,28235741,195472
OK,78,44,917,78,2014-10-02T09:50:00,0,28236184,195472
OK,78,44,917,78,2014-10-02T09:55:00,0,28236631,195472
OK,78,44,917,78,2014-10-02T10:00:00,0,28237034,195472
OK,78,44,917,78,2014-10-02T10:05:00,0,28237482,195472
OK,62,55,917,62,2014-10-02T10:10:00,4,28237930,195472
OK,69,49,917,69,2014-10-02T10:15:00,0,28238377,195472
OK,61,56,917,61,2014-10-02T10:20:00,3,28238818,195472
OK,61,56,917,61,2014-10-02T10:25:00,0,28239267,195472
OK,61,56,917,61,2014-10-02T10:30:00,0,28239697,195472
OK,100,34,917,100,2014-10-02T10:35:00,2,28240146,195472
OK,100,34,917,100,2014-10-02T10:40:00,2,28240590,195472
OK,100,34,917,100,2014-10-02T10:45:00,0,28241039,195472
OK,100,34,917,100,2014-10-02T10:50:00,0,28241471,195472
OK,70,49,917,70,2014-10-02T10:55:00,0,28241919,195472
OK,70,49,917,70,2014-10-02T11:00:00,0,28242315,195472
OK,70,49,917,70,2014-10-02T11:05:00,0,28242764,195472
OK,75,45,917,75,2014-10-02T11:10:00,1,28243213,195472
OK,92,37,917,92,2014-10-02T11:15:00,1,28243547,195472
OK,80,42,917,80,2014-10-02T11:20:00,2,28243976,195472
OK,68,50,917,68,2014-10-02T11:25:00,0,28244405,195472
OK,68,50,917,68,2014-10-02T11:30:00,0,28244854,195472
OK,66,52,917,66,2014-10-02T11:35:00,3,28245303,195472
OK,66,52,917,66,2014-10-02T11:40:00,0,28245709,195472
OK,66,52,917,66,2014-10-02T11:45:00,0,28246158,195472
OK,88,39,917,88,2014-10-02T11:50:00,1,28246595,195472
OK,88,39,917,88,2014-10-02T11:55:00,0,28247044,195472
OK,88,39,917,88,2014-10-02T12:00:00,0,28247490,195472
OK,88,39,917,88,2014-10-02T12:05:00,0,28247920,195472
OK,88,39,917,88,2014-10-02T12:10:00,0,28248369,195472
OK,69,49,917,69,2014-10-02T12:15:00,4,28248816,195472
OK,77,44,917,77,2014-10-02T12:20:00,0,28249244,195472
OK,76,45,917,76,2014-10-02T12:25:00,5,28249688,195472
OK,99,34,917,99,2014-10-02T12:30:00,2,28250107,195472
OK,103,33,917,103,2014-10-02T12:35:00,6,28250505,195472
OK,95,36,917,95,2014-10-02T13:20:00,6,28251830,195472
OK,146,23,917,146,2014-10-02T13:30:00,3,28252414,195472
OK,154,22,917,154,2014-10-02T13:35:00,2,28252856,195472
OK,162,21,917,162,2014-10-02T13:40:00,0,28253273,195472
OK,158,21,917,158,2014-10-02T13:45:00,3,28253722,195472
OK,158,21,917,158,2014-10-02T13:50:00,3,28254127,195472
OK,168,20,917,168,2014-10-02T13:55:00,3,28254448,195472
OK,130,26,917,130,2014-10-02T14:10:00,2,28255025,195472
OK,104,33,917,104,2014-10-02T14:15:00,3,28255474,195472
OK,89,38,917,89,2014-10-02T14:20:00,2,28255902,195472
OK,74,46,917,74,2014-10-02T14:25:00,0,28256351,195472
OK,90,38,917,90,2014-10-02T14:30:00,7,28256779,195472
OK,134,25,917,134,2014-10-02T14:35:00,3,28257228,195472
OK,79,43,917,79,2014-10-02T14:40:00,0,28257669,195472
OK,78,44,917,78,2014-10-02T14:45:00,8,28258117,195472
OK,78,44,917,78,2014-10-02T14:50:00,6,28258550,195472
OK,73,47,917,73,2014-10-02T14:55:00,2,28258996,195472
OK,62,55,917,62,2014-10-02T15:00:00,1,28259445,195472
OK,67,51,917,67,2014-10-02T15:05:00,4,28259892,195472
OK,78,44,917,78,2014-10-02T15:10:00,4,28260325,195472
OK,87,39,917,87,2014-10-02T15:15:00,0,28260774,195472
OK,87,39,917,87,2014-10-02T15:20:00,0,28261214,195472
OK,117,29,917,117,2014-10-02T15:25:00,4,28261596,195472
OK,66,52,917,66,2014-10-02T15:30:00,1,28262026,195472
OK,67,51,917,67,2014-10-02T15:40:00,0,28262919,195472
OK,66,52,917,66,2014-10-02T15:45:00,3,28263357,195472